Location: A�t �Alizem
(31.2076°N, 8.7872°W)
Time: 06:33:33
(UTC+00:00)

ERS-2 - Pass Details

Date: 27 November 2020
Orbit: 492 x 498 km, 98.6° (Epoch: 25 January)

Event Time Altitude Azimuth Distance (km) Brightness Sun altitude
Rises 18:01:46 0° 18° (NNE) 2,590 5.4 -6.6°
Reaches altitude 10° 18:03:53 10° 24° (NNE) 1,704 4.4 -7.0°
Maximum altitude 18:07:28 52° 101° (E) 626 2.3 -7.7°
Drops below altitude 10° 18:11:01 10° 179° (S) 1,692 5.1 -8.4°
Sets 18:13:07 0° 184° (S) 2,571 6.1 -8.8°
